When you browse on this site, cookies collect data to enhance your experience and personalize the content and advertising you see.
Visit our Privacy Policy to learn more. By continuing to use the site, you agree to this use of cookies and data.
  • In Czech Republic
  • List of Countries
  • For 7 days
  • Water Temperature
  • Satellite Maps
  • Weather Map
  • Weather Widgets
  • user-avatar
    Login

    Hourly Weather Cherepovschina

    Today, 19 February, Tuesday

    Time Temperature Precipitation Wind Pressure Humidity
    00:00 -5°C° 0 mm 3 mps 749 mmHg 75%
    01:00 -5°C° 0 mm 3 mps 749 mmHg 75%
    02:00 -5°C° 0 mm 3 mps 748 mmHg 74%
    03:00 -5°C° 0 mm 4 mps 748 mmHg 75%
    04:00 -5°C° 0 mm 4 mps 747 mmHg 76%
    05:00 -5°C° 0 mm 4 mps 747 mmHg 76%
    06:00 -5°C° 0 mm 4 mps 746 mmHg 78%
    07:00 -4°C° 0 mm 4 mps 746 mmHg 79%
    08:00 -4°C° 0 mm 4 mps 746 mmHg 80%
    09:00 -4°C° 0 mm 5 mps 745 mmHg 80%
    10:00 -1°C° 0 mm 5 mps 744 mmHg 81%
    11:00 0°C° 0 mm 5 mps 744 mmHg 81%
    12:00 0°C° 0 mm 5 mps 743 mmHg 83%
    13:00 +1°C° 0 mm 6 mps 742 mmHg 84%
    14:00 +1°C° 0 mm 6 mps 742 mmHg 86%
    15:00 +1°C° 0 mm 6 mps 741 mmHg 87%
    16:00 +1°C° 0 mm 5 mps 740 mmHg 88%
    17:00 0°C° 0 mm 5 mps 740 mmHg 90%
    18:00 0°C° 0 mm 5 mps 739 mmHg 89%
    19:00 0°C° 0 mm 5 mps 739 mmHg 88%
    20:00 0°C° 0 mm 5 mps 738 mmHg 88%
    21:00 0°C° 0 mm 5 mps 738 mmHg 87%
    22:00 0°C° 0 mm 5 mps 737 mmHg 87%
    23:00 0°C° 0 mm 4 mps 737 mmHg 86%

    Tomorrow, 20 February, Wednesday

    Time Temperature Precipitation Wind Pressure Humidity
    00:00 0°C° 0 mm 4 mps 737 mmHg 88%
    01:00 0°C° 0 mm 4 mps 737 mmHg 90%
    02:00 0°C° 0 mm 4 mps 737 mmHg 92%
    03:00 0°C° 0 mm 4 mps 737 mmHg 92%
    04:00 0°C° 0 mm 4 mps 736 mmHg 92%
    05:00 0°C° 0 mm 4 mps 736 mmHg 92%
    06:00 0°C° 0 mm 4 mps 736 mmHg 92%
    07:00 0°C° 0 mm 5 mps 736 mmHg 92%
    08:00 0°C° 0 mm 5 mps 736 mmHg 92%
    09:00 0°C° 0.1 mm 5 mps 736 mmHg 91%
    10:00 +1°C° 0.1 mm 5 mps 736 mmHg 89%
    11:00 +1°C° 0.1 mm 6 mps 736 mmHg 88%
    12:00 +1°C° 0.1 mm 6 mps 736 mmHg 85%
    13:00 +1°C° 0.1 mm 6 mps 736 mmHg 83%
    14:00 +1°C° 0.1 mm 6 mps 736 mmHg 81%
    15:00 +1°C° 0.1 mm 6 mps 736 mmHg 82%
    16:00 +1°C° 0.1 mm 6 mps 736 mmHg 83%
    17:00 0°C° 0.1 mm 7 mps 736 mmHg 85%
    18:00 -1°C° 0.2 mm 7 mps 736 mmHg 80%
    19:00 -2°C° 0.2 mm 7 mps 736 mmHg 76%
    20:00 -3°C° 0.2 mm 7 mps 737 mmHg 71%
    21:00 -3°C° 0.1 mm 7 mps 737 mmHg 71%
    22:00 -4°C° 0.1 mm 7 mps 738 mmHg 71%
    23:00 -6°C° 0.1 mm 7 mps 738 mmHg 70%

    Day after tomorrow, 21 February, Thursday

    Time Temperature Precipitation Wind Pressure Humidity
    00:00 -6°C° 0 mm 7 mps 739 mmHg 70%
    01:00 -6°C° 0 mm 7 mps 739 mmHg 70%
    02:00 -6°C° 0 mm 7 mps 739 mmHg 70%
    03:00 -6°C° 0 mm 7 mps 740 mmHg 70%
    04:00 -6°C° 0 mm 7 mps 740 mmHg 70%
    05:00 -7°C° 0 mm 7 mps 740 mmHg 70%
    06:00 -7°C° 0 mm 7 mps 741 mmHg 69%
    07:00 -7°C° 0 mm 7 mps 741 mmHg 69%
    08:00 -8°C° 0 mm 7 mps 741 mmHg 68%
    09:00 -8°C° 0 mm 7 mps 742 mmHg 66%
    10:00 -6°C° 0 mm 6 mps 742 mmHg 64%
    11:00 -6°C° 0 mm 6 mps 743 mmHg 61%
    12:00 -6°C° 0 mm 6 mps 743 mmHg 61%
    13:00 -6°C° 0 mm 6 mps 743 mmHg 60%
    14:00 -6°C° 0 mm 6 mps 744 mmHg 59%
    15:00 -6°C° 0 mm 5 mps 744 mmHg 60%
    16:00 -6°C° 0 mm 5 mps 744 mmHg 62%
    17:00 -5°C° 0 mm 4 mps 744 mmHg 63%
    18:00 -7°C° 0 mm 4 mps 745 mmHg 64%
    19:00 -7°C° 0 mm 4 mps 745 mmHg 65%
    20:00 -7°C° 0 mm 4 mps 746 mmHg 66%
    21:00 -7°C° 0 mm 4 mps 746 mmHg 66%
    22:00 -7°C° 0 mm 4 mps 747 mmHg 66%
    23:00 -8°C° 0 mm 4 mps 747 mmHg 66%

    22 February, Friday

    Time Temperature Precipitation Wind Pressure Humidity
    00:00 -8°C° 0 mm 4 mps 748 mmHg 67%
    01:00 -8°C° 0 mm 4 mps 748 mmHg 67%
    02:00 -8°C° 0 mm 5 mps 749 mmHg 68%
    03:00 -10°C° 0 mm 5 mps 749 mmHg 66%
    04:00 -10°C° 0 mm 5 mps 750 mmHg 65%
    05:00 -11°C° 0 mm 6 mps 751 mmHg 63%
    06:00 -11°C° 0 mm 6 mps 752 mmHg 63%
    07:00 -12°C° 0 mm 6 mps 753 mmHg 63%
    08:00 -12°C° 0 mm 6 mps 754 mmHg 63%
    09:00 -11°C° 0 mm 6 mps 754 mmHg 59%
    10:00 -11°C° 0 mm 6 mps 755 mmHg 56%
    11:00 -10°C° 0 mm 6 mps 756 mmHg 52%
    12:00 -10°C° 0 mm 5 mps 756 mmHg 51%
    13:00 -8°C° 0 mm 5 mps 757 mmHg 50%
    14:00 -8°C° 0 mm 5 mps 757 mmHg 49%
    15:00 -8°C° 0 mm 5 mps 757 mmHg 49%
    16:00 -8°C° 0 mm 5 mps 757 mmHg 49%
    17:00 -8°C° 0 mm 4 mps 757 mmHg 49%
    18:00 -8°C° 0 mm 5 mps 757 mmHg 52%
    19:00 -8°C° 0 mm 5 mps 758 mmHg 55%
    20:00 -10°C° 0 mm 5 mps 758 mmHg 58%
    21:00 -10°C° 0 mm 5 mps 758 mmHg 61%
    22:00 -10°C° 0 mm 5 mps 758 mmHg 64%
    23:00 -9°C° 0 mm 4 mps 759 mmHg 67%

    23 February, Saturday

    Time Temperature Precipitation Wind Pressure Humidity
    00:00 -9°C° 0 mm 4 mps 759 mmHg 71%
    01:00 -9°C° 0 mm 3 mps 759 mmHg 74%
    02:00 -9°C° 0 mm 3 mps 759 mmHg 78%
    03:00 -9°C° 0 mm 3 mps 759 mmHg 78%
    04:00 -9°C° 0 mm 3 mps 759 mmHg 79%
    05:00 -9°C° 0 mm 3 mps 759 mmHg 79%
    06:00 -8°C° 0 mm 2 mps 759 mmHg 80%
    07:00 -8°C° 0 mm 2 mps 759 mmHg 81%
    08:00 -8°C° 0 mm 2 mps 759 mmHg 82%
    09:00 -7°C° 0 mm 2 mps 759 mmHg 79%
    10:00 -7°C° 0 mm 2 mps 759 mmHg 75%
    11:00 -6°C° 0 mm 2 mps 759 mmHg 71%
    12:00 -5°C° 0 mm 2 mps 758 mmHg 68%
    13:00 -5°C° 0 mm 2 mps 758 mmHg 65%
    14:00 -4°C° 0 mm 2 mps 757 mmHg 62%
    15:00 -5°C° 0.1 mm 2 mps 757 mmHg 67%
    16:00 -5°C° 0.1 mm 2 mps 757 mmHg 71%
    17:00 -5°C° 0.1 mm 2 mps 756 mmHg 76%
    18:00 -5°C° 0.1 mm 2 mps 756 mmHg 80%
    19:00 -3°C° 0.1 mm 1 mps 756 mmHg 83%
    20:00 -3°C° 0.1 mm 1 mps 756 mmHg 87%
    21:00 -3°C° 0.1 mm 1 mps 757 mmHg 88%
    22:00 -3°C° 0.1 mm 1 mps 757 mmHg 89%
    23:00 -3°C° 0.1 mm 1 mps 757 mmHg 90%

    24 February, Sunday

    Time Temperature Precipitation Wind Pressure Humidity
    00:00 -3°C° 0 mm 1 mps 757 mmHg 91%
    01:00 -4°C° 0 mm 1 mps 757 mmHg 91%
    02:00 -6°C° 0 mm 2 mps 758 mmHg 92%
    03:00 -6°C° 0 mm 2 mps 758 mmHg 92%
    04:00 -6°C° 0 mm 1 mps 758 mmHg 92%
    05:00 -6°C° 0 mm 1 mps 758 mmHg 92%
    06:00 -6°C° 0 mm 1 mps 759 mmHg 92%
    07:00 -7°C° 0 mm 2 mps 759 mmHg 91%
    08:00 -7°C° 0 mm 2 mps 759 mmHg 91%
    09:00 -6°C° 0 mm 2 mps 759 mmHg 85%
    10:00 -5°C° 0 mm 2 mps 759 mmHg 80%
    11:00 -4°C° 0 mm 2 mps 760 mmHg 75%
    12:00 -3°C° 0 mm 2 mps 759 mmHg 73%
    13:00 -3°C° 0 mm 2 mps 759 mmHg 71%
    14:00 -2°C° 0 mm 2 mps 759 mmHg 69%
    15:00 -2°C° 0 mm 2 mps 758 mmHg 73%
    16:00 -3°C° 0 mm 2 mps 758 mmHg 76%
    17:00 -3°C° 0 mm 2 mps 757 mmHg 79%
    18:00 -3°C° 0 mm 2 mps 757 mmHg 81%
    19:00 -4°C° 0 mm 3 mps 756 mmHg 84%
    20:00 -4°C° 0 mm 3 mps 756 mmHg 86%
    21:00 -4°C° 0 mm 3 mps 755 mmHg 87%
    22:00 -4°C° 0 mm 3 mps 754 mmHg 88%
    23:00 -2°C° 0 mm 3 mps 754 mmHg 89%
    Show more